Retour au catalogue

THORAD AGENA D DEB

ActifSSO
NORAD 4946·DEBRIS·🇺🇸 United States

Lancé Apr 8, 1970 depuis Vandenberg Space Force Base

Loading…

Prochains Passages (prochaines 24 heures)

TLE

FraisSource: Space-Track

Époque: Sep 14, 2026, 14:20 UTC

1 04946U 70025GG  26257.59766297  .00000680  00000-0  65376-3 0  9994
2 04946  99.6760  25.4151 0016273 100.8231 324.1266 13.83969215815379

Suivez THORAD AGENA D DEB en temps réel avec AllMySat

Download on the App Store